Location: Unspecified
(45.2733°N, 0.0000°E)
Time: 15:26:18
(UTC+00:00)

ISS - Visible Passes

Search period start: 23 May 2019 00:00
Search period end: 02 June 2019 00:00
Orbit: 408 x 418 km, 51.6° (Epoch: 23 May)

Date Brightness Start Highest point End Pass type
(mag) Time Alt. Az. Time Alt. Az. Time Alt. Az.
23 May -1.6 21:27:15 10° WNW 21:30:12 27° N 21:33:09 10° NE visible
23 May -2.1 23:04:24 10° NW 23:07:29 33° NNE 23:08:23 28° NE visible
24 May -0.9 00:41:00 10° WNW 00:41:10 11° WNW 00:41:10 11° WNW visible
24 May -1.8 20:37:32 10° WNW 20:40:35 31° NNW 20:43:38 10° NE visible
24 May -1.8 22:14:54 10° NW 22:17:52 28° N 22:20:20 13° ENE visible
24 May -1.9 23:51:33 10° WNW 23:53:08 26° NW 23:53:08 26° NW visible
25 May -1.6 21:25:20 10° WNW 21:28:14 26° N 21:31:09 10° ENE visible
25 May -2.9 23:02:06 10° NW 23:05:09 50° N 23:05:09 50° N visible
26 May -1.6 20:35:41 10° WNW 20:38:35 26° N 20:41:29 10° ENE visible
26 May -2.5 22:12:39 10° NW 22:15:50 38° NNE 22:17:12 25° ENE visible
26 May -1.2 23:49:19 10° WNW 23:50:01 15° WNW 23:50:01 15° WNW visible
27 May -2.1 21:23:10 10° NW 21:26:12 31° NNE 21:29:15 10° ENE visible
27 May -2.7 22:59:46 10° WNW 23:02:05 41° WNW 23:02:05 41° WNW visible
28 May -1.8 20:33:37 10° NW 20:36:32 27° N 20:39:30 10° ENE visible
28 May -3.6 22:10:17 10° WNW 22:13:37 67° NNE 22:14:10 54° E visible
29 May -2.9 21:20:48 10° NW 21:24:03 46° NNE 21:26:17 18° E visible
29 May -1.8 22:57:35 10° WNW 22:59:06 21° W 22:59:06 21° W visible
30 May -2.4 20:31:18 10° NW 20:34:26 35° NNE 20:37:33 10° E visible
30 May -3.6 22:07:55 10° WNW 22:11:14 56° SW 22:11:14 56° SW visible
31 May -3.8 21:18:21 10° WNW 21:21:43 90° N 21:23:24 27° ESE visible
31 May -1.0 22:56:03 10° W 22:56:13 11° W 22:56:13 11° W visible
01 Jun -3.4 20:28:50 10° WNW 20:32:09 59° NNE 20:35:28 10° ESE visible
01 Jun -2.2 22:05:52 10° W 22:08:24 23° SW 22:08:24 23° SW visible
